• In Belarus
  • List of Countries
  • For 7 days
  • Water Temperature
  • Satellite Maps
  • Weather Map
  • Weather Widgets
  • user-avatar
    Login

    Hourly Weather Tarin Kowt

    Today, 22 February, Thursday

    Time Temperature Precipitation Wind Pressure Humidity
    00:00 +10°C° 0 mm 1 mps 616 mmHg 29%
    01:00 +10°C° 0 mm 1 mps 616 mmHg 28%
    02:00 +10°C° 0 mm 1 mps 615 mmHg 29%
    03:00 +9°C° 0 mm 1 mps 615 mmHg 29%
    04:00 +9°C° 0 mm 1 mps 615 mmHg 29%
    05:00 +9°C° 0 mm 1 mps 615 mmHg 29%
    06:00 +9°C° 0 mm 1 mps 615 mmHg 29%
    07:00 +9°C° 0 mm 1 mps 615 mmHg 29%
    08:00 +11°C° 0 mm 1 mps 616 mmHg 26%
    09:00 +12°C° 0 mm 1 mps 616 mmHg 22%
    10:00 +14°C° 0 mm 1 mps 617 mmHg 19%
    11:00 +15°C° 0 mm 1 mps 617 mmHg 18%
    12:00 +16°C° 0 mm 1 mps 617 mmHg 18%
    13:00 +16°C° 0 mm 1 mps 617 mmHg 18%
    14:00 +16°C° 0 mm 2 mps 616 mmHg 18%
    15:00 +17°C° 0 mm 2 mps 616 mmHg 18%
    16:00 +17°C° 0 mm 2 mps 616 mmHg 18%
    17:00 +16°C° 0 mm 1 mps 616 mmHg 21%
    18:00 +15°C° 0 mm 1 mps 616 mmHg 25%
    19:00 +13°C° 0 mm 1 mps 616 mmHg 28%
    20:00 +13°C° 0 mm 1 mps 615 mmHg 28%
    21:00 +13°C° 0 mm 1 mps 615 mmHg 28%
    22:00 +12°C° 0 mm 1 mps 615 mmHg 28%
    23:00 +12°C° 0 mm 2 mps 615 mmHg 28%

    Tomorrow, 23 February, Friday

    Time Temperature Precipitation Wind Pressure Humidity
    00:00 +12°C° 0 mm 2 mps 615 mmHg 28%
    01:00 +12°C° 0 mm 2 mps 615 mmHg 28%
    02:00 +12°C° 0 mm 2 mps 615 mmHg 28%
    03:00 +12°C° 0 mm 2 mps 614 mmHg 29%
    04:00 +10°C° 0 mm 2 mps 614 mmHg 30%
    05:00 +10°C° 0.1 mm 2 mps 614 mmHg 32%
    06:00 +10°C° 0.1 mm 2 mps 614 mmHg 35%
    07:00 +10°C° 0.1 mm 3 mps 614 mmHg 38%
    08:00 +10°C° 0.4 mm 3 mps 614 mmHg 40%
    09:00 +9°C° 0.4 mm 3 mps 614 mmHg 43%
    10:00 +8°C° 0.4 mm 4 mps 614 mmHg 45%
    11:00 +9°C° 1.3 mm 3 mps 614 mmHg 50%
    12:00 +8°C° 1.3 mm 3 mps 613 mmHg 56%
    13:00 +7°C° 1.3 mm 3 mps 612 mmHg 61%
    14:00 +7°C° 1.1 mm 3 mps 612 mmHg 64%
    15:00 +7°C° 1.1 mm 3 mps 612 mmHg 66%
    16:00 +7°C° 1.1 mm 3 mps 611 mmHg 68%
    17:00 +6°C° 1.1 mm 2 mps 611 mmHg 70%
    18:00 +6°C° 1.1 mm 2 mps 611 mmHg 72%
    19:00 +6°C° 1.1 mm 2 mps 611 mmHg 74%
    20:00 +6°C° 0.1 mm 2 mps 612 mmHg 74%
    21:00 +6°C° 0.1 mm 2 mps 612 mmHg 74%
    22:00 +6°C° 0.1 mm 2 mps 612 mmHg 74%
    23:00 +6°C° 0 mm 2 mps 612 mmHg 74%

    Day after tomorrow, 24 February, Saturday

    Time Temperature Precipitation Wind Pressure Humidity
    00:00 +7°C° 0 mm 1 mps 612 mmHg 73%
    01:00 +7°C° 0 mm 1 mps 612 mmHg 73%
    02:00 +7°C° 0 mm 1 mps 612 mmHg 75%
    03:00 +7°C° 0 mm 1 mps 612 mmHg 77%
    04:00 +6°C° 0 mm 1 mps 612 mmHg 79%
    05:00 +7°C° 0 mm 1 mps 613 mmHg 79%
    06:00 +7°C° 0 mm 1 mps 613 mmHg 79%
    07:00 +7°C° 0 mm 1 mps 614 mmHg 79%
    08:00 +8°C° 0 mm 1 mps 614 mmHg 73%
    09:00 +9°C° 0 mm 1 mps 615 mmHg 67%
    10:00 +11°C° 0 mm 1 mps 616 mmHg 61%
    11:00 +12°C° 0 mm 1 mps 616 mmHg 56%
    12:00 +12°C° 0 mm 2 mps 616 mmHg 51%
    13:00 +13°C° 0 mm 2 mps 616 mmHg 46%
    14:00 +14°C° 0 mm 2 mps 616 mmHg 44%
    15:00 +14°C° 0 mm 2 mps 616 mmHg 41%
    16:00 +14°C° 0 mm 2 mps 616 mmHg 39%
    17:00 +13°C° 0 mm 1 mps 616 mmHg 43%
    18:00 +13°C° 0 mm 1 mps 617 mmHg 47%
    19:00 +12°C° 0 mm 1 mps 617 mmHg 51%
    20:00 +12°C° 0 mm 1 mps 617 mmHg 51%
    21:00 +12°C° 0 mm 2 mps 617 mmHg 50%
    22:00 +10°C° 0 mm 2 mps 617 mmHg 50%
    23:00 +10°C° 0 mm 2 mps 617 mmHg 50%

    25 February, Sunday

    Time Temperature Precipitation Wind Pressure Humidity
    00:00 +10°C° 0 mm 3 mps 617 mmHg 51%
    01:00 +9°C° 0 mm 3 mps 617 mmHg 52%
    02:00 +9°C° 0 mm 3 mps 616 mmHg 52%
    03:00 +9°C° 0 mm 3 mps 616 mmHg 53%
    04:00 +9°C° 0 mm 3 mps 616 mmHg 53%
    05:00 +9°C° 0.5 mm 3 mps 616 mmHg 56%
    06:00 +9°C° 0.5 mm 3 mps 617 mmHg 58%
    07:00 +8°C° 0.5 mm 3 mps 617 mmHg 61%
    08:00 +8°C° 1.4 mm 3 mps 617 mmHg 65%
    09:00 +7°C° 1.4 mm 3 mps 617 mmHg 69%
    10:00 +7°C° 1.4 mm 3 mps 617 mmHg 73%
    11:00 +7°C° 1.9 mm 3 mps 617 mmHg 75%
    12:00 +7°C° 1.9 mm 3 mps 616 mmHg 76%
    13:00 +7°C° 1.9 mm 3 mps 616 mmHg 78%
    14:00 +5°C° 2.2 mm 3 mps 616 mmHg 79%
    15:00 +5°C° 2.2 mm 3 mps 616 mmHg 80%
    16:00 +5°C° 2.2 mm 3 mps 615 mmHg 81%
    17:00 +5°C° 0.8 mm 3 mps 616 mmHg 81%
    18:00 +7°C° 0.8 mm 3 mps 616 mmHg 80%
    19:00 +7°C° 0.8 mm 3 mps 616 mmHg 80%
    20:00 +7°C° 0.9 mm 3 mps 616 mmHg 81%
    21:00 +7°C° 0.9 mm 3 mps 616 mmHg 82%
    22:00 +7°C° 0.9 mm 3 mps 616 mmHg 83%
    23:00 +7°C° 1.1 mm 3 mps 616 mmHg 84%

    26 February, Monday

    Time Temperature Precipitation Wind Pressure Humidity
    00:00 +7°C° 1.1 mm 3 mps 615 mmHg 84%
    01:00 +7°C° 1.1 mm 3 mps 615 mmHg 85%
    02:00 +7°C° 0.3 mm 3 mps 615 mmHg 85%
    03:00 +7°C° 0.3 mm 3 mps 615 mmHg 86%
    04:00 +8°C° 0.3 mm 3 mps 615 mmHg 86%
    05:00 +8°C° 0.6 mm 3 mps 615 mmHg 86%
    06:00 +8°C° 0.6 mm 3 mps 615 mmHg 86%
    07:00 +8°C° 0.6 mm 3 mps 615 mmHg 86%
    08:00 +8°C° 0.5 mm 3 mps 616 mmHg 82%
    09:00 +9°C° 0.5 mm 3 mps 616 mmHg 79%
    10:00 +8°C° 0.5 mm 4 mps 616 mmHg 75%
    11:00 +10°C° 0.9 mm 4 mps 616 mmHg 73%
    12:00 +10°C° 0.9 mm 4 mps 616 mmHg 71%
    13:00 +10°C° 0.9 mm 4 mps 616 mmHg 69%
    14:00 +10°C° 1.4 mm 5 mps 616 mmHg 67%
    15:00 +10°C° 1.4 mm 5 mps 616 mmHg 66%
    16:00 +10°C° 1.4 mm 5 mps 615 mmHg 64%
    17:00 +10°C° 1.7 mm 4 mps 616 mmHg 67%
    18:00 +10°C° 1.7 mm 4 mps 616 mmHg 71%
    19:00 +9°C° 1.7 mm 3 mps 616 mmHg 75%
    20:00 +9°C° 0.6 mm 2 mps 616 mmHg 76%
    21:00 +8°C° 0.6 mm 2 mps 616 mmHg 77%
    22:00 +8°C° 0.6 mm 2 mps 616 mmHg 78%
    23:00 +8°C° 0.1 mm 2 mps 616 mmHg 78%

    27 February, Tuesday

    Time Temperature Precipitation Wind Pressure Humidity
    00:00 +8°C° 0.1 mm 2 mps 616 mmHg 78%
    01:00 +7°C° 0.1 mm 2 mps 616 mmHg 78%
    02:00 +7°C° 0.1 mm 2 mps 616 mmHg 78%
    03:00 +7°C° 0.1 mm 2 mps 616 mmHg 77%
    04:00 +7°C° 0.1 mm 2 mps 616 mmHg 77%
    05:00 +7°C° 0 mm 2 mps 617 mmHg 76%
    06:00 +7°C° 0 mm 2 mps 617 mmHg 74%
    07:00 +7°C° 0 mm 2 mps 618 mmHg 73%
    08:00 +9°C° 0 mm 2 mps 618 mmHg 67%
    09:00 +10°C° 0 mm 2 mps 618 mmHg 61%
    10:00 +12°C° 0 mm 2 mps 619 mmHg 55%
    11:00 +13°C° 0 mm 2 mps 619 mmHg 52%
    12:00 +14°C° 0 mm 1 mps 618 mmHg 48%
    13:00 +15°C° 0 mm 1 mps 618 mmHg 44%
    14:00 +15°C° 0 mm 1 mps 618 mmHg 42%
    15:00 +15°C° 0 mm 1 mps 618 mmHg 41%
    16:00 +15°C° 0 mm 1 mps 618 mmHg 39%
    17:00 +15°C° 0 mm 1 mps 618 mmHg 43%
    18:00 +14°C° 0 mm 1 mps 618 mmHg 47%
    19:00 +13°C° 0 mm 1 mps 618 mmHg 51%
    20:00 +13°C° 0 mm 2 mps 618 mmHg 51%
    21:00 +13°C° 0 mm 2 mps 618 mmHg 51%
    22:00 +12°C° 0 mm 2 mps 618 mmHg 52%
    23:00 +12°C° 0 mm 2 mps 618 mmHg 52%
    Show more